Location: Hall+in+Tirol
(47.2830°N, 11.5170°E)
Time: 12:39:32
(UTC+01:00)

Daily predictions for brighter satellites

Satellite Brightness Start Highest point End
(mag) Time Altitude Azimuth Time Altitude Azimuth Time Altitude Azimuth
Cosmos 1943 Rocket 2.9 17:20:40 10° NNW 17:25:37 30° NE 17:30:30 10° ESE
Cosmos 1354 Rocket 4.3 17:20:45 10° NNW 17:25:51 45° ENE 17:30:56 10° SE
Cosmos 1484 Rocket 2.7 17:25:12 10° SSE 17:29:02 84° ENE 17:32:50 10° NNW
ERBS 4.3 17:27:08 10° WNW 17:29:35 18° NNW 17:32:01 10° NE
SPOT 3 Rocket 4.5 17:26:36 10° ESE 17:30:48 26° ENE 17:35:02 10° N
SeaSat 1 4.1 17:28:35 10° S 17:33:13 40° WSW 17:37:53 10° NW
USA 161 2.5 17:33:48 10° N 17:36:09 37° WNW 17:38:17 10° SW
Cosmos 1953 Rocket 4.5 17:32:07 10° SSW 17:36:26 52° WNW 17:40:44 10° N
ALOS 3.0 17:32:23 10° SE 17:36:27 31° ENE 17:40:32 10° N
GEOS 3 Rocket 4.2 17:32:02 10° ESE 17:36:56 39° NE 17:41:54 10° NNW
Cosmos 1300 4.2 17:36:46 10° NNE 17:39:23 17° ENE 17:41:59 10° ESE
USA 215 4.0 17:35:11 10° ENE 17:41:11 40° N 17:47:09 10° WNW
Ariane Rocket 3.0 17:36:46 10° SSE 17:41:50 89° ENE 17:46:57 10° NNW
Cosmos 2084 3.1 17:38:23 10° NW 17:42:11 67° NE 17:46:00 10° SE
Cosmos 1461 3.4 17:42:28 10° SW 17:46:43 62° NW 17:51:14 10° NNE
SL-16 R/B 2.8 17:42:26 10° SW 17:48:02 58° WNW 17:53:41 10° NNE
CSL-04 Debris 4.4 17:42:41 10° S 17:48:07 78° WSW 17:53:38 10° NNW
SKYMED 2 4.3 17:45:05 10° NNE 17:49:01 32° E 17:52:54 10° SSE
FENGYUN 3A 3.9 17:48:38 10° SE 17:53:42 46° ENE 17:58:48 10° N
Cosmos 1503 Rocket 4.0 17:48:30 10° NNW 17:53:50 75° ENE 17:59:10 10° SSE
NOAA 12 4.4 17:50:11 10° SE 17:55:05 43° ENE 18:00:02 10° N
NOSS 2-1 (C) 4.1 17:52:07 10° S 17:55:27 33° ESE 17:58:09 16° ENE
NOSS 2-1 (D) 4.0 17:52:43 10° S 17:56:04 34° ESE 17:58:47 16° ENE
ATLAS 5 CENTAUR R/B 3.7 17:54:20 10° WNW 17:58:08 22° NNW 18:02:15 10° NNE
Cosmos 1908 3.2 17:55:31 10° N 17:59:27 84° E 18:03:19 10° S
Cosmos 1302 Rocket 4.2 17:54:52 10° SSW 18:00:09 77° WNW 18:05:29 10° NNE
Tiangong 1 2.7 17:59:09 10° SSW 18:00:56 18° SSE 18:02:17 12° SE
Cosmos 1603 3.7 17:55:29 10° SSW 18:01:11 70° ESE 18:06:55 10° NNE
Cosmos 1295 Rocket 4.4 17:55:44 10° N 18:01:48 63° ENE 18:07:50 10° SSE
BREEZE M DEB (TANK) 4.5 17:57:47 10° SSW 18:02:28 55° SE 18:16:49 15° ENE
YAOGAN 1 2.5 17:58:28 10° SSE 18:02:47 81° ENE 18:07:09 10° NNW
Cosmos 1943 3.6 17:59:10 10° S 18:04:25 42° ESE 18:09:10 12° NE
MTI 4.5 18:02:24 14° NE 18:04:43 33° E 18:07:40 10° SSE
Cosmos 1400 Rocket 3.6 18:01:29 10° SSE 18:05:02 31° E 18:08:10 13° NE
ERS-2 2.7 18:04:12 10° SE 18:07:32 33° ENE 18:10:54 10° N
Meteor 1-28 Rocket 3.7 18:04:47 10° N 18:08:35 62° WNW 18:12:20 10° SSW
TELKOM 3 2.7 18:07:52 10° WSW 18:09:59 78° SSE 18:10:40 37° ENE
ATLAS 2AS CENTAUR R/B 3.0 18:02:47 10° NW 18:10:52 88° NE 18:18:20 10° SE
Cosmos 2237 Rocket 4.2 18:08:49 10° W 18:13:05 21° NW 18:17:22 10° N
Cosmos 2366 rocket 4.3 18:08:46 10° N 18:14:45 43° ENE 18:20:37 10° SE
H-2A R/B 3.5 18:12:35 10° SE 18:15:54 29° ENE 18:19:16 10° N
KORONAS-FOTON 3.7 18:12:12 10° S 18:15:58 70° E 18:19:46 10° NNE
Cosmos 1992 Rocket 4.1 18:11:04 10° S 18:16:07 54° ESE 18:20:44 12° NNE
METEOR-M 4.4 18:14:43 10° S 18:20:03 73° WSW 18:25:27 10° NNW
SL-24 R/B - RUBIN 2 4.5 18:16:01 10° NNW 18:20:13 30° NE 18:21:42 25° ENE
Lacrosse 5 rocket 4.5 18:19:35 10° W 18:22:38 18° SW 18:25:46 10° SSW
Cosmos 2341 Rocket 4.1 18:17:32 10° N 18:23:49 85° W 18:30:07 10° S
NOSS 2-1 (E) 3.4 18:20:30 10° SSW 18:24:09 58° SE 18:26:10 27° NE
CZ-4 R/B 2.9 18:20:38 10° S 18:24:38 42° W 18:28:41 10° NNW
Meteor 2-14 Rocket 4.4 18:19:10 10° N 18:25:21 88° E 18:31:26 10° S
CZ-2C R/B 3.9 18:20:58 10° NNE 18:25:45 78° WNW 18:30:26 10° SSW
Cosmos 2263 4.2 18:20:36 10° NNW 18:26:26 82° ENE 18:32:11 10° SSE
NOSS 3-4 (A) 4.0 18:26:25 10° NW 18:33:03 49° NE 18:37:49 21° ESE
NOSS 3-4 (C) 4.0 18:26:31 10° NW 18:33:09 49° NE 18:37:51 21° ESE
Cosmos 1867 4.2 18:28:19 10° WSW 18:33:37 52° NW 18:38:04 15° NNE
Cosmos 968 Rocket 3.3 18:31:12 10° NNW 18:36:25 78° ENE 18:41:33 10° SSE
Cosmos 2221 2.7 18:32:05 10° NNW 18:36:26 73° W 18:40:47 10° S
EO 1 Del DPAF 3.2 18:34:28 22° NNE 18:36:49 63° ESE 18:40:36 10° S
COSMO-SKYMED 1 2.6 18:32:50 10° NNE 18:37:12 83° WNW 18:41:32 10° SSW
Cosmos 1408 Rocket 4.3 18:37:13 10° SSE 18:40:14 31° ESE 18:40:14 31° ESE
Cosmos 2369 Rocket 2.8 18:36:26 10° NW 18:41:59 58° WSW 18:47:32 10° S
NOSS 3-3 (A) 3.9 18:36:44 10° SSW 18:42:49 77° SE 18:47:08 23° NE
NOSS 3-3 (C) 3.9 18:36:51 10° SSW 18:42:56 77° SE 18:47:12 24° NE
Cosmos 1726 3.0 18:39:55 10° NNW 18:43:31 51° W 18:47:04 10° S
Meteor 2-10 4.2 18:41:22 10° NNW 18:46:24 71° W 18:51:25 10° S
Thor Agena Rocket 4.2 18:51:40 34° ESE 18:51:40 34° ESE 18:55:53 10° SSE
Cosmos 864 Rocket 4.4 18:47:58 10° N 18:54:21 79° E 19:00:40 10° SSE
Cosmos 2181 Rocket 4.2 18:48:04 10° SSW 18:54:30 75° W 19:00:59 10° N
Lacrosse 4 Rocket 3.9 18:52:15 10° WNW 18:54:33 14° NW 18:56:50 10° N
Envisat 4.0 18:57:10 28° NNE 18:57:10 28° NNE 19:00:09 10° N
SL-14 R/B 3.2 18:52:19 10° S 18:56:19 89° W 18:58:09 31° N
Landsat 4 4.4 18:54:11 15° N 18:57:10 54° WNW 19:00:49 10° SSW
Meteor 2-2 Rocket 4.1 18:54:24 10° N 19:00:14 77° ENE 19:05:56 10° SSE
Cosmos 1315 Rocket 3.0 19:02:48 10° S 19:06:01 56° SSE 19:06:01 56° SSE
Cosmos 1943 Rocket 2.9 19:04:12 10° NW 19:09:39 52° WSW 19:15:01 10° S
SPOT 3 Rocket 4.5 19:04:57 10° S 19:09:56 49° W 19:14:57 10° NNW
Cosmos 1656 Rocket 3.5 19:06:01 10° NNW 19:11:30 75° ENE 19:13:27 41° SE
FengYun 1-2 T 4.3 19:06:36 10° SSE 19:12:15 82° WSW 19:17:55 10° NNW
Okean 3 Rocket 4.3 19:08:31 10° SSW 19:12:58 56° WNW 19:17:05 12° N
ALOS 4.0 19:09:36 10° SSW 19:13:49 34° W 19:18:04 10° NNW
GEOS 3 Rocket 4.3 19:09:38 10° SSE 19:14:49 55° SW 19:20:07 10° NW
Cosmos 1300 4.1 19:11:40 10° NNW 19:15:17 39° W 19:18:51 10° SSW
Cosmos 1076 Rocket 4.3 19:12:03 10° SSW 19:16:19 52° WNW 19:19:38 16° N
Cosmos 2218 Rocket 4.4 19:11:03 10° NNW 19:17:09 63° W 19:23:11 10° S
Cosmos 1766 Rocket 3.5 19:18:17 10° SSW 19:22:36 78° W 19:22:37 78° WNW
USA 215 3.8 19:22:05 38° NE 19:23:22 42° NNE 19:29:26 10° NW
Cosmos 1777 Rocket 4.1 19:36:10 10° NNW 19:41:24 71° WSW 19:41:53 66° SSW
ATLAS 5 CENTAUR R/B 4.2 19:41:57 10° NNW 19:44:36 15° N 19:44:36 15° N
Cosmos 2098 Rocket 3.7 19:40:46 10° NNW 19:45:17 68° W 19:51:03 10° S
Cosmos 1943 4.5 19:43:21 10° WSW 19:48:31 36° NW 19:51:01 25° N
Cosmos 909 Rocket 4.1 19:49:22 10° NW 19:56:06 76° N 19:56:06 76° N
Nadezhda 3 Rocket 4.4 20:12:17 10° SSW 20:17:54 59° WSW 20:17:54 59° WSW
NOSS 3-4 (A) 4.4 20:17:24 10° NW 20:24:08 51° WSW 20:25:20 46° SSW
NOSS 3-4 (C) 4.4 20:17:29 10° NW 20:24:14 51° WSW 20:25:22 47° SSW
